Location: Seven Kings
(51.5667°N, 0.1000°E)
Time: 12:04:14
(UTC+00:00)

YAOGAN 1 - Pass Details

Date: 29 October 2020
Orbit: 618 x 620 km, 97.9° (Epoch: 25 November)

Event Time Altitude Azimuth Distance (km) Brightness Sun altitude
Rises 18:52:16 0° 177° (S) 2,886 5.9 -21.5°
Reaches altitude 10° 18:54:29 10° 182° (S) 1,985 5.1 -21.8°
Maximum altitude 18:58:43 53° 260° (W) 768 3.3 -22.5°
Drops below altitude 10° 19:02:59 10° 337° (NNW) 2,000 5.5 -23.1°
Sets 19:05:14 0° 343° (NNW) 2,911 6.3 -23.5°
